This is the latest recevied weather packets stored in our database for station/object CX5ACA-13. If no packets are shown the sender has not sent any weather packets the latest 10 day(s).
| Time | Temp. | Humidity | Pressure | Rain* | Wind** | Luminosity | Snow |
|---|---|---|---|---|---|---|---|
| 1778018216 | 20.56° C | 84% | 1014.6 hPa | 0 mm | - | 0 W/m² | - |
| 1778017914 | 20.56° C | 84% | 1014.4 hPa | 0 mm | - | 0 W/m² | - |
| 1778017611 | 20.56° C | 83% | 1014.6 hPa | 0 mm | - | 0 W/m² | - |
| 1778017309 | 20.56° C | 83% | 1014.5 hPa | 0 mm | - | 0 W/m² | - |
| 1778017006 | 20.56° C | 83% | 1014.3 hPa | 0 mm | - | 0 W/m² | - |
| 1778016703 | 20.56° C | 83% | 1014.2 hPa | 0 mm | - | 0 W/m² | - |
| 1778016398 | 21.11° C | 83% | 1014.3 hPa | 0 mm | - | 0 W/m² | - |
| 1778016096 | 21.11° C | 83% | 1014.5 hPa | 0 mm | - | 0 W/m² | - |
| 1778015793 | 21.11° C | 83% | 1014.3 hPa | 0 mm | - | 0 W/m² | - |
| 1778015490 | 21.11° C | 83% | 1014.5 hPa | 0 mm | - | 0 W/m² | - |
| 1778015187 | 21.11° C | 84% | 1014.5 hPa | 0 mm | - | 1 W/m² | - |
| 1778014884 | 21.11° C | 84% | 1014.5 hPa | 0 mm | - | 2 W/m² | - |
| 1778014581 | 21.11° C | 85% | 1014.6 hPa | 0 mm | - | 4 W/m² | - |
| 1778014279 | 21.11° C | 85% | 1014.6 hPa | 0 mm | - | 5 W/m² | - |
| 1778013976 | 21.11° C | 85% | 1014.6 hPa | 0 mm | - | 7 W/m² | - |
| 1778013673 | 21.11° C | 85% | 1014.5 hPa | 0 mm | - | 9 W/m² | - |
| 1778013370 | 21.11° C | 85% | 1014.5 hPa | 0 mm | - | 13 W/m² | - |
| 1778013067 | 21.11° C | 84% | 1014.4 hPa | 0 mm | - | 17 W/m² | - |
| 1778012762 | 21.11° C | 84% | 1014.3 hPa | 0 mm | - | 21 W/m² | - |
| 1778012459 | 21.11° C | 84% | 1014.4 hPa | 0 mm | - | 24 W/m² | - |
| 1778012156 | 21.11° C | 84% | 1014.5 hPa | 0 mm | - | 25 W/m² | - |
| 1778011854 | 21.11° C | 84% | 1014.6 hPa | 0 mm | - | 37 W/m² | - |
| 1778011551 | 21.11° C | 84% | 1014.6 hPa | 0 mm | - | 44 W/m² | - |
| 1778011248 | 21.11° C | 84% | 1014.6 hPa | 0 mm | - | 39 W/m² | - |
| 1778010944 | 21.11° C | 83% | 1014.7 hPa | 0 mm | - | 47 W/m² | - |
* Rain latest hour (hover to see other rain measurements)
** Current wind speed in m/s (hover to see current wind gust speed)